EW4415 Weather Reports


Display with metric or nautical units.
time (UTC)temp
F
wind
direction
speed
MPH
gust
MPH
rain 1hr
in
rain 24hr
in
rain mn
in
humidity
%
barometer
mb
20260507124536 56 154 0.0 3.0 0.00 0.00 0.00 29 1015.5
20260507123035 55 148 0.0 5.0 0.00 0.00 0.00 28 1015.5
20260507121522 57 287 0.0 0.0 0.00 0.00 0.00 30 1015.4
20260507120018 56 156 0.0 7.0 0.00 0.00 0.00 29 1015.4
20260507114513 57 143 0.0 1.0 0.00 0.00 0.00 29 1015.4
20260507113008 58 48 0.0 1.0 0.00 0.00 0.00 29 1015.3
20260507111509 58 163 0.0 0.0 0.00 0.00 0.00 29 1015.5
20260507110104 58 145 0.0 1.0 0.00 0.00 0.00 27 1015.5
20260507104556 57 151 0.0 1.0 0.00 0.00 0.00 29 1015.5
20260507103051 56 317 0.0 2.0 0.00 0.00 0.00 30 1015.5
20260507101601 57 148 0.0 1.0 0.00 0.00 0.00 29 1015.4
20260507100043 57 152 0.0 1.0 0.00 0.00 0.00 30 1015.4
20260507094542 57 91 0.0 1.0 0.00 0.00 0.00 33 1015.5
20260507093042 56 168 0.0 1.0 0.00 0.00 0.00 37 1015.5
20260507091534 56 136 0.0 1.0 0.00 0.00 0.00 36 1015.4
20260507090027 56 190 0.0 0.0 0.00 0.00 0.00 38 1015.6
20260507084522 55 136 0.0 1.0 0.00 0.00 0.00 37 1015.7
20260507083021 54 99 0.0 1.0 0.00 0.00 0.00 40 1015.7
20260507081522 54 217 0.0 1.0 0.00 0.00 0.00 42 1015.8
20260507080012 53 192 0.0 0.0 0.00 0.00 0.00 43 1015.7
20260507074505 52 143 0.0 1.0 0.00 0.00 0.00 42 1015.8
20260507073100 52 151 0.0 1.0 0.00 0.00 0.00 45 1015.8
20260507071559 51 194 0.0 0.0 0.00 0.00 0.00 50 1015.8
20260507070053 49 163 0.0 1.0 0.00 0.00 0.00 53 1015.7
20260507064604 48 67 0.0 0.0 0.00 0.00 0.00 54 1015.7
20260507063047 46 132 0.0 0.0 0.00 0.00 0.00 57 1015.7
20260507061539 44 132 0.0 0.0 0.00 0.00 0.00 58 1015.7
20260507060036 44 137 0.0 0.0 0.00 0.00 0.00 57 1015.7
20260507054529 43 157 0.0 0.0 0.00 0.00 0.00 58 1015.6
20260507053025 42 141 0.0 1.0 0.00 0.00 0.00 59 1015.6
20260507051520 39 137 0.0 1.0 0.00 0.00 0.00 59 1015.6
20260507050016 37 5 0.0 0.0 0.00 0.00 0.00 57 1015.6
20260507044512 35 319 0.0 0.0 0.00 0.00 0.00 49 1015.6
20260507043008 33 101 0.0 0.0 0.00 0.00 0.00 27 1015.7
20260507041506 32 48 0.0 0.0 0.00 0.00 0.00 12 1015.6
20260507040059 30 54 0.0 0.0 0.00 0.00 0.00 1 1015.6
20260507034557 29 44 0.0 0.0 0.00 0.00 0.00 1 1015.6
20260507033050 28 284 0.0 0.0 0.00 0.00 0.00 1 1015.6
20260507031545 27 284 0.0 0.0 0.00 0.00 0.00 1 1015.4
20260507030041 27 284 0.0 0.0 0.00 0.00 0.00 1 1015.3
20260507024536 27 284 0.0 0.0 0.00 0.00 0.00 1 1015.3
20260507023032 27 284 0.0 0.0 0.00 0.00 0.00 1 1015.4
20260507021527 27 284 0.0 0.0 0.00 0.00 0.00 1 1015.4
20260507020027 27 284 0.0 0.0 0.00 0.00 0.00 1 1015.3
20260507014527 27 284 0.0 0.0 0.00 0.00 0.00 1 1015.3
20260507013031 27 284 0.0 0.0 0.00 0.00 0.00 1 1015.2
20260507011523 28 284 0.0 0.0 0.00 0.00 0.00 1 1015.2
20260507010007 28 284 0.0 0.0 0.00 0.00 0.00 1 1015.1
20260507004501 28 284 0.0 0.0 0.00 0.00 0.00 1 1015.2
20260507003057 28 284 0.0 0.0 0.00 0.00 0.00 1 1015.0
20260507001609 28 284 0.0 0.0 0.00 0.00 0.00 1 1015.1
20260507000049 29 284 0.0 0.0 0.00 0.00 0.00 1 1015.0
20260506234545 29 284 0.0 0.0 0.00 0.00 0.00 1 1014.9
20260506233045 29 284 0.0 0.0 0.00 0.00 0.00 1 1015.0
20260506231539 29 284 0.0 0.0 0.00 0.00 0.00 1 1014.9
20260506230031 29 284 0.0 0.0 0.00 0.00 0.00 1 1014.9
20260506224527 29 284 0.0 0.0 0.00 0.00 0.00 1 1014.9
20260506223024 30 284 0.0 0.0 0.00 0.00 0.00 1 1014.8
20260506221517 30 284 0.0 0.0 0.00 0.00 0.00 1 1014.8
20260506220013 30 284 0.0 0.0 0.00 0.00 0.00 5 1014.6
20260506214509 31 284 0.0 0.0 0.00 0.00 0.00 11 1014.6
20260506213005 31 284 0.0 0.0 0.00 0.00 0.00 17 1014.5
20260506211600 32 284 0.0 0.0 0.00 0.00 0.00 26 1014.4
20260506210109 33 284 0.0 0.0 0.00 0.00 0.00 34 1014.4
20260506204552 34 284 0.0 0.0 0.00 0.00 0.00 39 1014.3
20260506203050 35 284 0.0 0.0 0.00 0.00 0.00 44 1014.3
20260506201546 36 284 0.0 0.0 0.00 0.00 0.00 47 1014.3
20260506200058 37 284 0.0 0.0 0.00 0.00 0.00 51 1014.2
20260506194535 38 284 0.0 0.0 0.00 0.00 0.00 53 1014.1
20260506193031 39 284 0.0 0.0 0.00 0.00 0.00 56 1014.1
20260506191526 40 284 0.0 0.0 0.00 0.00 0.00 59 1014.1
20260506190021 41 284 0.0 0.0 0.00 0.00 0.00 61 1014.1
20260506184516 42 284 0.0 0.0 0.00 0.00 0.00 61 1014.2
20260506183011 42 284 0.0 0.0 0.00 0.00 0.00 62 1014.1
20260506181508 43 284 0.0 0.0 0.00 0.00 0.00 61 1014.1
20260506180005 44 284 0.0 0.0 0.00 0.00 0.00 60 1014.1
20260506174601 45 251 0.0 0.0 0.00 0.00 0.00 59 1014.0
20260506173111 46 206 0.0 0.0 0.00 0.00 0.00 56 1014.0
20260506171558 46 245 0.0 0.0 0.00 0.00 0.00 54 1013.9
20260506170047 46 317 0.0 0.0 0.00 0.00 0.00 51 1013.9
20260506164542 47 76 0.0 1.0 0.00 0.00 0.00 50 1013.7
20260506163046 47 62 0.0 1.0 0.00 0.00 0.00 51 1013.7
20260506161547 49 284 0.0 1.0 0.00 0.00 0.00 51 1013.7
20260506160029 49 343 0.0 1.0 0.00 0.00 0.00 49 1013.8
20260506154525 49 165 0.0 0.0 0.00 0.00 0.00 51 1013.7
20260506153025 48 306 0.0 2.0 0.00 0.00 0.00 50 1013.7
20260506151522 48 260 0.0 2.0 0.00 0.00 0.00 48 1013.6
20260506150023 50 130 0.0 1.0 0.00 0.00 0.00 47 1013.7
20260506144514 50 132 0.0 0.0 0.00 0.00 0.00 48 1013.8
20260506143010 50 342 0.0 2.0 0.00 0.00 0.00 48 1013.7
20260506141504 50 290 0.0 1.0 0.00 0.00 0.00 48 1013.9
20260506134618 50 261 0.0 5.0 0.00 0.00 0.00 48 1013.7
20260506133052 50 182 0.0 4.0 0.00 0.00 0.00 48 1013.6
20260506131605 48 360 0.0 10.0 0.00 0.00 0.00 48 1013.5
20260506130044 50 118 0.0 2.0 0.00 0.00 0.00 46 1013.6